Weather History for KOBE - December, 2012

Change the Weather History Date:

Sunday, December 2, 2012

  Actual Average (KVRB) Record (KVRB)
Temperature  
Mean Temperature 68 °F 67 °F  
Max Temperature 78 °F 76 °F 87 °F (2009)
Min Temperature 59 °F 58 °F 37 °F (1974)
Degree Days  
Heating Degree Days 0 2  
Month to date heating degree days 4  
Since 1 July heating degree days 34  
Cooling Degree Days 4 4  
Month to date cooling degree days 8  
Year to date cooling degree days 3319  
Growing Degree Days 18 (Base 50)    
Moisture  
Dew Point 62 °F    
Average Humidity 87    
Maximum Humidity 100    
Minimum Humidity 50    
Precipitation  
Precipitation 0.12 in 0.07 in 0.37 in (1985)
Month to date precipitation 0.15  
Year to date precipitation 49.83  
Sea Level Pressure  
Sea Level Pressure 30.23 in    
Wind  
Wind Speed 5 mph (NE)    
Max Wind Speed 14 mph    
Max Gust Speed 18 mph    
Visibility 9 miles    
Events Rain    
T = Trace of Precipitation, MM = Missing Value Source: NWS Daily Summary

Daily Weather History Graph

Daily Weather History Graph

Search for Another Location

Airport or City:

Trip Planner

Search our weather history database for the weather conditions in past years. The results will help you decide how hot, cold, wet, or windy it might be!

Date:

Astronomy

Dec. 02, 2012 Rise Set
Actual Time 6:57 AM EST 5:28 PM EST
Civil Twilight 6:31 AM EST 5:54 PM EST
Nautical Twilight 6:02 AM EST 6:23 PM EST
Astronomical Twilight 5:34 AM EST 6:51 PM EST
Moon 9:06 PM EST (12/2) 9:53 AM EST (12/2)
Length of Visible Light 11h 22m
Length of Day
10h 31m
Waning Gibbous, 86% of the Moon is Illuminated
Dec 2
Waning Gibbous
Dec 6
Last Quarter
Dec 13
New
Dec 20
First Quarter
Dec 28
Full

Hourly Weather History & Observations

Time (EST) Temp. Dew Point Humidity Pressure Visibility Wind Dir Wind Speed Gust Speed Precip Events Conditions
12:15 AM 64.4 °F 62.6 °F 94% 30.23 in 10.0 mi East 8.1 mph - N/A   Overcast
12:35 AM 64.4 °F 62.6 °F 94% 30.22 in 10.0 mi East 4.6 mph - N/A   Overcast
12:55 AM 64.4 °F 60.8 °F 88% 30.23 in 10.0 mi East 3.5 mph - N/A   Mostly Cloudy
1:15 AM 64.4 °F 60.8 °F 88% 30.22 in 7.0 mi ESE 8.1 mph - N/A Rain Rain
1:35 AM 64.4 °F 60.8 °F 88% 30.22 in 10.0 mi NNE 4.6 mph - N/A   Overcast
1:55 AM 62.6 °F 62.6 °F 100% 30.22 in 10.0 mi NNE 3.5 mph - N/A   Mostly Cloudy
2:15 AM 64.4 °F 62.6 °F 94% 30.22 in 10.0 mi ENE 3.5 mph - N/A   Overcast
2:35 AM 64.4 °F 62.6 °F 94% 30.22 in 10.0 mi NE 4.6 mph - N/A   Overcast
2:55 AM 64.4 °F 62.6 °F 94% 30.21 in 10.0 mi NNE 4.6 mph - N/A   Overcast
3:15 AM 64.4 °F 62.6 °F 94% 30.21 in 10.0 mi NNE 9.2 mph - N/A   Overcast
3:35 AM 64.4 °F 62.6 °F 94% 30.21 in 5.0 mi NNE 6.9 mph - 0.02 in Rain Rain
3:55 AM 64.4 °F 62.6 °F 94% 30.21 in 5.0 mi NE 6.9 mph - 0.05 in Rain Rain
4:15 AM 64.4 °F 62.6 °F 94% 30.20 in 10.0 mi NNE 3.5 mph - 0.06 in Rain Light Rain
4:35 AM 62.6 °F 62.6 °F 100% 30.20 in 10.0 mi Calm Calm - 0.06 in   Overcast
4:55 AM 62.6 °F 62.6 °F 100% 30.21 in 10.0 mi North 3.5 mph - 0.06 in   Overcast
5:15 AM 62.6 °F 62.6 °F 100% 30.20 in 10.0 mi North 3.5 mph - N/A   Mostly Cloudy
5:35 AM 60.8 °F 60.8 °F 100% 30.21 in 7.0 mi Calm Calm - N/A   Scattered Clouds
5:55 AM 60.8 °F 60.8 °F 100% 30.21 in 10.0 mi North 3.5 mph - N/A   Clear
6:15 AM 60.8 °F 60.8 °F 100% 30.22 in 10.0 mi NNW 4.6 mph - N/A   Clear
6:35 AM 60.8 °F 60.8 °F 100% 30.22 in 10.0 mi Calm Calm - N/A   Clear
6:55 AM 59.0 °F 59.0 °F 100% 30.23 in 7.0 mi Calm Calm - N/A   Clear
7:15 AM 59.0 °F 59.0 °F 100% 30.24 in 5.0 mi Calm Calm - N/A   Scattered Clouds
7:35 AM 59.0 °F 59.0 °F 100% 30.24 in 7.0 mi North 3.5 mph - 0.01 in   Scattered Clouds
8:15 AM 60.8 °F 60.8 °F 100% 30.25 in 10.0 mi North 3.5 mph - N/A   Mostly Cloudy
8:35 AM 62.6 °F 60.8 °F 94% 30.26 in 10.0 mi NNE 4.6 mph - N/A   Overcast
8:55 AM 62.6 °F 62.6 °F 100% 30.26 in 7.0 mi NE 3.5 mph - N/A Rain Light Rain
9:15 AM 64.4 °F 62.6 °F 94% 30.26 in 10.0 mi Calm Calm - N/A   Overcast
9:35 AM 66.2 °F 62.6 °F 88% 30.27 in 10.0 mi Calm Calm - N/A   Overcast
9:55 AM 69.8 °F 64.4 °F 83% 30.27 in 10.0 mi North 3.5 mph - N/A   Overcast
10:15 AM 71.6 °F 64.4 °F 78% 30.27 in 10.0 mi NNE 4.6 mph - N/A   Scattered Clouds
10:35 AM 71.6 °F 64.4 °F 78% 30.27 in 10.0 mi NE 6.9 mph - N/A   Clear
10:55 AM 73.4 °F 64.4 °F 73% 30.26 in 10.0 mi NE 4.6 mph - N/A   Clear
11:15 AM 73.4 °F 62.6 °F 69% 30.26 in 10.0 mi ENE 6.9 mph - N/A   Mostly Cloudy
11:35 AM 73.4 °F 62.6 °F 69% 30.26 in 10.0 mi ENE 6.9 mph - N/A   Mostly Cloudy
12:35 PM 75.2 °F 59.0 °F 57% 30.23 in 10.0 mi ENE 3.5 mph - N/A   Scattered Clouds
12:55 PM 77.0 °F 57.2 °F 50% 30.22 in 10.0 mi ENE 5.8 mph - N/A   Clear
1:15 PM 77.0 °F 59.0 °F 54% 30.21 in 10.0 mi East 6.9 mph - N/A   Scattered Clouds
1:35 PM 78.8 °F 59.0 °F 51% 30.20 in 10.0 mi ENE 10.4 mph - N/A   Mostly Cloudy
1:55 PM 75.2 °F 60.8 °F 61% 30.20 in 10.0 mi East 10.4 mph - N/A   Scattered Clouds
2:15 PM 77.0 °F 60.8 °F 57% 30.20 in 10.0 mi East 12.7 mph 18.4 mph N/A   Mostly Cloudy
2:35 PM 73.4 °F 60.8 °F 65% 30.20 in 10.0 mi East 5.8 mph - N/A   Overcast
2:55 PM 75.2 °F 60.8 °F 61% 30.19 in 10.0 mi East 10.4 mph 16.1 mph N/A   Overcast
3:15 PM 73.4 °F 62.6 °F 69% 30.20 in 10.0 mi East 6.9 mph - N/A   Overcast
3:35 PM 71.6 °F 62.6 °F 73% 30.20 in 10.0 mi East 8.1 mph - N/A   Overcast
3:55 PM 69.8 °F 62.6 °F 78% 30.20 in 10.0 mi East 13.8 mph - N/A   Overcast
4:15 PM 66.2 °F 62.6 °F 88% 30.21 in 5.0 mi ESE 6.9 mph - N/A Rain Rain
4:35 PM 66.2 °F 62.6 °F 88% 30.20 in 10.0 mi SSE 4.6 mph - N/A   Overcast
4:55 PM 68.0 °F 62.6 °F 83% 30.21 in 10.0 mi Calm Calm - N/A   Mostly Cloudy
5:15 PM 66.2 °F 62.6 °F 88% 30.21 in 10.0 mi Calm Calm - N/A   Scattered Clouds
5:35 PM 66.2 °F 62.6 °F 88% 30.22 in 10.0 mi Calm Calm - N/A   Mostly Cloudy
6:15 PM 66.2 °F 62.6 °F 88% 30.22 in 10.0 mi NE 3.5 mph - N/A   Overcast
6:55 PM 66.2 °F 62.6 °F 88% 30.22 in 10.0 mi NNE 6.9 mph - N/A   Overcast
7:35 PM 64.4 °F 62.6 °F 94% 30.23 in 10.0 mi NNE 6.9 mph - N/A   Mostly Cloudy
7:55 PM 64.4 °F 62.6 °F 94% 30.23 in 10.0 mi NE 5.8 mph - N/A   Overcast
8:15 PM 64.4 °F 60.8 °F 88% 30.23 in 10.0 mi NNE 5.8 mph - N/A   Overcast
8:35 PM 64.4 °F 62.6 °F 94% 30.24 in 10.0 mi NNE 6.9 mph - N/A   Overcast
9:15 PM 64.4 °F 62.6 °F 94% 30.25 in 10.0 mi NE 4.6 mph - N/A   Overcast
9:35 PM 64.4 °F 62.6 °F 94% 30.25 in 10.0 mi ENE 4.6 mph - N/A   Overcast
9:55 PM 64.4 °F 62.6 °F 94% 30.25 in 10.0 mi NE 3.5 mph - N/A   Overcast
10:15 PM 64.4 °F 62.6 °F 94% 30.25 in 7.0 mi ENE 3.5 mph - N/A   Overcast
10:35 PM 64.4 °F 62.6 °F 94% 30.25 in 10.0 mi Calm Calm - N/A Rain Light Rain
10:55 PM 64.4 °F 62.6 °F 94% 30.25 in 10.0 mi East 3.5 mph - N/A   Overcast
11:15 PM 64.4 °F 62.6 °F 94% 30.24 in 7.0 mi Calm Calm - N/A   Light Drizzle
11:35 PM 64.4 °F 62.6 °F 94% 30.25 in 10.0 mi North 4.6 mph - N/A   Overcast
11:55 PM 64.4 °F 62.6 °F 94% 30.24 in 10.0 mi Calm Calm - N/A   Overcast